Home > Weather > Phuket > Past weeks

Flag for Thailand Past Weather in Phuket, Thailand — Yesterday and Last 2 Weeks

Now
79 °F

Partly cloudy.


Feels Like: 82 °F
Forecast: 79 / 83 °F
Wind: 2 mph from North

Location: Phuket Airport

Current Time: Aug 24, 2016 at 4:12:16 AM

Latest Report: Aug 24, 2016 at 3:30 AM


Visibility: 4 mi

Pressure: 29.74 "Hg

Humidity: 89%

Dew Point: 75 °F

Location of PhuketLocation

Past Weather in Phuket — Graph

°F

Phuket Temperature Yesterday

Maximum temperature yesterday: 88 °F (at 12:00 PM)
Minimum temperature yesterday: 77 °F (at 11:30 PM)
Average temperature yesterday: 84 °F

High & Low Weather Summary for the Past Weeks

 TemperatureHumidityPressure
High90 °F (Aug 9, 11:30 AM)94% (Aug 15, 1:30 PM)29.92 "Hg (Aug 15, 1:30 PM)
Low75 °F (Aug 9, 8:30 PM)59% (Aug 9, 11:30 AM)29.71 "Hg (Aug 23, 4:00 PM)
Average83 °F75%29.82 "Hg
* Reported Aug 9 2:00 AM — Aug 24 2:30 AM, Phuket, Weather by CustomWeather, © 2016

Note: Actual official high and low records may vary slightly from our data, if they occured in-between our weather recording intervals... More about our weather records

Advertising

Phuket Weather History for the Previous 24 Hours

Scroll right to see more
 ConditionsComfort  
Time TempWeatherWind HumidityBarometerVisibility
2:30 AM
Wed, Aug 24
77 °FPartly cloudy.2 mph94%29.74 "Hg4 mi
2:00 AM77 °FPartly cloudy.6 mph89%29.77 "Hg4 mi
1:30 AM77 °FPartly cloudy.1 mph89%29.77 "Hg4 mi
1:00 AM77 °FThunderstorms. Partly cloudy.1 mph89%29.77 "Hg4 mi
12:30 AM77 °FThunderstorms. Partly cloudy.5 mph89%29.80 "Hg4 mi
12:00 AM79 °FThunderstorms. Passing clouds.8 mph84%29.80 "Hg4 mi
11:30 PM
Tue, Aug 23
77 °FThunderstorms. Passing clouds.14 mph83%29.80 "Hg3 mi
11:00 PM79 °FPassing clouds.5 mph84%29.80 "Hg4 mi
10:30 PM79 °FPassing clouds.6 mph89%29.80 "Hg4 mi
10:00 PM79 °FPassing clouds.6 mph89%29.80 "Hg4 mi
9:30 PM79 °FLight rain. Passing clouds.15 mph84%29.77 "HgN/A
9:00 PM82 °FPassing clouds.9 mph79%29.77 "Hg4 mi
8:30 PM84 °FPassing clouds.12 mph74%29.77 "Hg4 mi
8:00 PM82 °FPassing clouds.12 mph79%29.74 "Hg5 mi
7:30 PM84 °FPassing clouds.12 mph74%29.74 "Hg5 mi
7:00 PM82 °FPartly cloudy.13 mph79%29.74 "Hg5 mi
6:30 PM84 °FBroken clouds.14 mph74%29.74 "Hg5 mi
6:00 PM84 °FPartly sunny.12 mph74%29.71 "Hg5 mi
5:30 PM84 °FPartly sunny.12 mph74%29.71 "Hg5 mi
5:00 PM84 °FPartly sunny.12 mph74%29.71 "Hg5 mi
4:30 PM84 °FPartly sunny.13 mph74%29.71 "Hg5 mi
4:00 PM84 °FPartly sunny.14 mph74%29.71 "Hg5 mi
3:30 PM84 °FPartly sunny.13 mph74%29.74 "Hg5 mi
3:00 PM86 °FScattered showers. Broken clouds.14 mph70%29.74 "Hg4 mi
2:30 PM88 °FPartly sunny.15 mph66%29.74 "Hg5 mi
2:00 PM86 °FPartly sunny.13 mph75%29.74 "Hg5 mi
1:30 PM84 °FRain. Broken clouds.16 mph70%29.77 "Hg2 mi
1:00 PM88 °FScattered clouds.16 mph70%29.77 "Hg5 mi
12:30 PM86 °FScattered clouds.16 mph75%29.77 "Hg5 mi
12:00 PM88 °FScattered clouds.16 mph66%29.80 "Hg5 mi
11:30 AM86 °FScattered clouds.15 mph70%29.80 "Hg6 mi
11:00 AM86 °FScattered clouds.17 mph70%29.80 "Hg6 mi
10:30 AM86 °FScattered clouds.14 mph70%29.83 "Hg6 mi
10:00 AM86 °FPassing clouds.15 mph75%29.80 "Hg6 mi
9:30 AM86 °FScattered clouds.16 mph70%29.80 "Hg5 mi
9:00 AM86 °FScattered clouds.16 mph70%29.80 "Hg6 mi
8:30 AM84 °FPassing clouds.10 mph74%29.80 "Hg6 mi
8:00 AM84 °FScattered showers. Scattered clouds.17 mph74%29.80 "Hg4 mi
7:30 AM82 °FScattered showers. Scattered clouds.15 mph79%29.80 "Hg5 mi
7:00 AM82 °FScattered clouds.8 mph84%29.77 "Hg5 mi
6:00 AM82 °FPassing clouds.6 mph79%29.77 "Hg5 mi
4:00 AM82 °FPassing clouds.12 mph79%29.77 "Hg5 mi
Weather by CustomWeather, © 2016

See weather overviewHow to use our weather pages